Location: Pulvis Stellarum Observatory
(41.6962°N, 71.4263°W)
Time: 01:36:21
(UTC-04:00)

Cosmos 1758 - Visible Passes

Search period start: 23 July 2014 00:00
Search period end: 02 August 2014 00:00
Orbit: 550 x 577 km, 82.5° (Epoch: 22 July)

Date Brightness Start Highest point End Pass type
(mag) Time Alt. Az. Time Alt. Az. Time Alt. Az.
23 Jul 4.8 03:23:13 16° SSE 03:25:53 34° E 03:29:33 10° NNE visible
24 Jul 4.4 03:23:30 21° SSE 03:25:44 42° E 03:29:32 10° NNE visible
24 Jul 5.3 05:00:24 10° WSW 05:02:39 14° WNW 05:04:54 10° NW visible
25 Jul 4.0 03:23:44 28° SSE 03:25:34 52° E 03:29:30 10° NNE visible
25 Jul 5.5 05:01:04 10° W 05:02:37 12° WNW 05:04:10 10° NW visible
26 Jul 3.6 03:23:57 36° SSE 03:25:25 65° E 03:29:25 10° NNE visible
27 Jul 3.3 03:24:09 46° S 03:25:16 81° E 03:29:18 10° N visible
28 Jul 3.2 03:24:19 56° SSW 03:25:08 81° W 03:29:10 10° N visible
29 Jul 3.3 03:24:28 57° SW 03:25:00 65° W 03:29:01 10° N visible
30 Jul 6.1 01:48:35 11° E 01:48:42 11° E 01:49:50 10° ENE visible
30 Jul 3.5 03:24:36 51° W 03:24:53 52° W 03:28:49 10° N visible
31 Jul 5.9 01:48:42 14° E 01:48:42 14° E 01:50:29 10° NE visible
31 Jul 3.8 03:24:42 42° W 03:24:45 42° WNW 03:28:36 10° N visible
01 Aug 5.7 01:48:47 16° ENE 01:48:47 16° ENE 01:50:49 10° NE visible
01 Aug 4.2 03:24:47 34° WNW 03:24:47 34° WNW 03:28:21 10° N visible
